Regional Weather Roundup
Issued by NWS

Home | Current Version | Previous Version | Text Only | Print | Product List | Glossary On
Versions: 1 2 3 4 5 6 7 8 9 10 11 12 13 14 15 16 17 18 19 20 21 22 23 24 25 26 27 28 29 30 31 32 33 34 35 36 37 38 39 40 41 42 43 44 45 46 47 48 49 50
000
ASUS43 KTOP 180859
RWRKS

WEATHER ROUNDUP FOR KANSAS
NATIONAL WEATHER SERVICE GOODLAND KS
400 AM CDT THU SEP 18 2014

NOTE:  "FAIR" INDICATES FEW OR NO CLOUDS BELOW 12,000 FEET WITH NO
SIGNIFICANT WEATHER AND/OR OBSTRUCTIONS TO VISIBILITY.

KSZ001>006-013>018-027>032-041>047-181000-
NORTHWEST KANSAS

CITY           SKY/WX    TMP DP  RH WIND       PRES   REMARKS
GOODLAND       FOG       63  63 100 N3        29.97F VSB 1/4
HAYS           CLOUDY    68  63  83 E14       29.91S
HILL CITY      CLOUDY    66  63  90 E10       29.92F
RUSSELL        CLOUDY    68  66  93 E14       29.90R FOG
$$

KSZ061>065-074>080-084>089-181000-
SOUTHWEST KANSAS

CITY           SKY/WX    TMP DP  RH WIND       PRES   REMARKS
DODGE CITY     CLEAR     65  59  81 SW6       29.91S
ELKHART          N/A     62  51  67 SW10        N/A
GARDEN CITY    CLEAR     59  57  93 S8        29.92R
GREAT BEND     CLOUDY    70  64  83 E13       29.91R
LIBERAL        CLEAR     63  55  77 W8        29.95S
PRATT          CLEAR     64  61  88 SW5       29.89R
$$

KSZ066>073-081>083-090>101-181000-
SOUTHEAST KANSAS

CITY           SKY/WX    TMP DP  RH WIND       PRES   REMARKS
CHANUTE        TSTM      66  64  93 E13G23    29.96R FOG
COFFEYVILLE    CLOUDY    67  62  84 E18G29    29.94R
HUTCHINSON     MOCLDY    71  67  87 NE12G21   29.91R
NEWTON         MOCLDY    68  63  83 NE9G16    29.94R
PARSONS        CLOUDY    67  63  87 SE8       29.95R
WICHITA INTL   MOCLDY    71  64  78 E8        29.87R
WICHITA JABRA  CLEAR     68  66  93 E5        29.89R
WICHITA MCCONL CLEAR     72  72 100 E9        29.89R
WINFIELD       CLEAR     75  70  84 S13       29.88R
$$

KSZ007>012-019>026-033>040-048>060-102>105-181000-
NORTHEAST KANSAS

CITY           SKY/WX    TMP DP  RH WIND       PRES   REMARKS
CONCORDIA      MOCLDY    63  63 100 E9        29.91F FOG
EMPORIA        TSTM      65  63  93 E13       29.92F FOG
LAWRENCE       CLOUDY    64  62  93 E6        29.96R FOG
MANHATTAN      CLOUDY    67  65  93 E8        29.94R
OLATHE IND     CLOUDY    64  63  96 SE6       29.97R
OLATHE EXE     CLOUDY    63  62  97 E6        29.96R FOG
SALINA         CLOUDY    68  60  75 SE8       29.86F
TOPEKA BILLARD CLOUDY    65  65 100 E10       29.96R FOG
TOPEKA FORBES  FOG       64  63  96 E10       29.94F VSB 1
$$


USA.gov is the U.S. government's official web portal to all federal, state and local government web resources and services.